Regional Weather Roundup
Issued by NWS Upton, NY

Current Version | Previous Version | Graphics & Text | Print | Product List | Glossary Off
Versions: 1 2 3 4 5 6 7 8 9 10 11 12 13 14 15 16 17 18 19 20 21 22 23 24 25 26 27 28

000
ASUS41 KOKX 240505
RWROKX

REGIONAL WEATHER ROUNDUP
NATIONAL WEATHER SERVICE NEW YORK NY
100 AM EDT SUN JUL 24 2016

NOTE: "FAIR" INDICATES FEW OR NO CLOUDS BELOW 12,000 FEET WITH NO
SIGNIFICANT WEATHER AND/OR OBSTRUCTIONS TO VISIBILITY.

NYZ071-072-176-178-NJZ106-104-240600-
NEW YORK CITY METRO AREA

CITY           SKY/WX    TMP DP  RH WIND       PRES   REMARKS
Central Park   PTCLDY    81  57  43 CALM      29.94R
LaGuardia APRT PTCLDY    83  60  45 E5        29.90R
Kennedy INTL   PTCLDY    83  55  38 N7        29.91R
Newark/Liberty PTCLDY    82  57  42 NW7       29.91R
BRNX BOT. GARD   N/A     79  57  47 E2        29.92S
Wall St Helipt CLEAR     84  57  39 CALM      29.92R
Teterboro      CLEAR     82  54  37 N3        29.90R
$$

NYZ177-179-078>081-240600-
LONG ISLAND NEW YORK

CITY           SKY/WX    TMP DP  RH WIND       PRES   REMARKS
FARMINGDALE    PTCLDY    77  60  55 NE5       29.92R
ISLIP          PTCLDY    75  60  59 CALM      29.91R
SHIRLEY        PTCLDY    73  60  63 CALM      29.91R
RIVERHEAD      NOT AVBL
WESTHAMPTON    PTCLDY    75  61  61 N8        29.92R
SOUTHAMPTON      N/A     75  61  60 NE2       29.87R
BRIDGEHAMPTON    N/A     73  64  73 CALM      29.89S
EAST HAMPTON   FAIR      73  60  62 N5        29.90R
MONTAUK POINT    N/A     72  62  71 CALM      29.91R
$$

NYZ052-065-067-240600-
HUDSON VALLEY

CITY           SKY/WX    TMP DP  RH WIND       PRES   REMARKS
WHITE PLAINS   CLEAR     72  58  61 NW9       29.92R
NEWBURGH       CLEAR     73  61  64 CALM      29.96R
MONTGOMERY     CLEAR     66  60  81 CALM      29.94R
POUGHKEEPSIE   CLEAR     69  61  75 CALM      29.93R
ALBANY         PTCLDY    65  63  93 CALM      29.95R
$$

NJZ001-105-106-008-010-013-015-019>022-104-240600-
NEW JERSEY

CITY           SKY/WX    TMP DP  RH WIND       PRES   REMARKS
NEWARK/LIBERTY PTCLDY    82  57  42 NW7       29.91R
TETERBORO      CLEAR     82  54  37 N3        29.90R
CALDWELL       CLEAR     74  60  61 CALM      29.92R
MORRISTOWN     CLEAR     66  59  77 CALM      29.93R
SOMERVILLE     CLEAR     68  64  87 CALM      29.91R
SUSSEX         CLEAR     64  60  87 CALM      29.95R
ANDOVER          N/A     66  61  84 CALM      29.96R
TRENTON        CLEAR     76  66  71 N5        29.92R
MILLVILLE      CLEAR     73  71  93 CALM      29.92R FOG
ATLANTIC CITY  CLEAR     73  69  87 CALM      29.92R
WRIGHTSTOWN    CLEAR     71  70  96 VRB1      29.90R
TOMS RIVER     PTCLDY    71  68  90 W5        29.93R
BELMAR         CLEAR     75  69  81 NW5       29.93R
$$

PAZ047>061-062-071-240600-
EASTERN PENNSYLVANIA

CITY           SKY/WX    TMP DP  RH WIND       PRES   REMARKS
PHILADELPHIA   PTCLDY    79  70  74 NW5       29.93R
ALLENTOWN      CLEAR     71  58  63 CALM      29.94S
SCRANTON       CLEAR     72  58  61 SE7       29.98R
$$

CTZ002-004>006-009-010-012-RIZ004-006-007-MAZ004-011-015-240600-
SOUTHERN NEW ENGLAND
 IN CT

CITY           SKY/WX    TMP DP  RH WIND       PRES   REMARKS
BRADLEY INTL   PTCLDY    69  60  73 NW3       29.91R
HARTFORD       CLEAR     76  60  57 N3        29.91R
DANBURY        CLEAR     68  59  73 CALM      29.94R
WTRBRY/OXFORD    N/A     70  55  60 N8        29.94S
BRIDGEPORT     PTCLDY    79  57  46 NE5       29.90R
MERIDEN        CLEAR     73  57  57 W3        29.92R
NEW HAVEN      PTCLDY    76  57  51 N7        29.90R
CHESTER        FAIR      75  59  57 N6        29.92R
GROTON         CLEAR     76  58  53 NW6       29.88R
WILLIMANTIC    NOT AVBL

 IN RI

CITY           SKY/WX    TMP DP  RH WIND       PRES   REMARKS
PROVIDENCE     PTCLDY    74  56  53 N5        29.88S
BLOCK ISLAND   CLEAR     69  64  84 S5        29.90R
WESTERLY       CLEAR     75  56  51 N5        29.89R

 IN MA

CITY           SKY/WX    TMP DP  RH WIND       PRES   REMARKS
BOSTON         PTCLDY    72  58  61 NW12      29.87R
WORCESTER      CLEAR     67  56  67 NW15      29.92S
WESTFIELD      CLEAR     67  60  78 CALM      29.92R
PROVINCETOWN   NOT AVBL
NANTUCKET      PTCLDY    71  62  73 CALM      29.86R
$$

ANZ330-335-338-340-345-350-353-355-240600-
COASTAL MARINE OBSERVATIONS


STATION/POSITION TIME  SKY/WX   TEMP    WIND        PRES    VSBY  WAVE
                                AIR SEA DIR/SP/G                  HT/PER
                 (UTC)          (F)     (DEG/KT/KT) (MB)    (MI)  (FT/S)
NY HARB ENTRANCE 0350            77 73  280/  4/  6 1011.8          3/ 7
20S FIRE ISLAND  0350            77 74  290/  8/ 10 1011.5          3/ 6
GREAT SOUTH BAY  0415            80 80  350/  6/  8   N/A
23 SSW MONTAUK P 0350            74 71  280/  6/  8 1011.9          4/ 7
15 E BARNEGAT LI 0422               75                N/A           3/ 6
HUDSON CANYON    0350            78 77              1011.0          4/ 6
KINGS POINT      0400            82 73              1012.1
EXECUTION ROCKS  0400            78        CALM       N/A
CENTRAL LI SOUND 0400            77 73  360/  8/  8   N/A           1
EASTERN LI SOUND 0400            75 69  360/ 10/ 14   N/A
ROBBINS REEF     0400            86     310/  6/  7 1011.8
$$


>>>>>>>>>>>>>>>>>>>>>>>>>>>> KEY <<<<<<<<<<<<<<<<<<<<<<<<<<<
>                                                          <
>     SKY/WX - SKY CONDITION/PRESENT WEATHER               <
>     TMP    - TEMPERATURE IN FAHRENHEIT                   <
>     DP     - DEWPOINT IN FAHRENHEIT                      <
>     RH     - RELATIVE HUMIDITY IN PERCENT                <
>     WIND   - DIRECTION AND SPEED IN MPH                  <
>     PRES   - MEAN SEA LEVEL PRESSURE IN INCHES OF HG     <
>     WCI    - WIND CHILL INDEX                            <
>     VSB    - VISIBILITY IN MILES                         <
>     HX     - HEAT INDEX                                  <
>     TC     - TEMPERATURE IN CELSIUS                      <
>     VRB    - VARIABLE WIND DIRECTION                     <
>                                                          <
>>>>>>>>>>>>>>>>>>>>>>>>>>>> KEY <<<<<<<<<<<<<<<<<<<<<<<<<<<






USA.gov is the U.S. government's official web portal to all federal, state and local government web resources and services.